Regional Weather Roundup
Issued by NWS Boston, MA

Current Version | Previous Version | Graphics & Text | Print | Product List | Glossary On
Versions: 1 2 3 4 5 6 7 8 9 10 11 12 13 14 15 16 17 18 19 20 21 22 23 24 25 26 27 28 29 30 31 32 33 34 35 36 37 38 39 40 41 42 43 44 45 46 47 48 49 50
000
ASUS41 KBOX 100004
RWRBOX

REGIONAL WEATHER ROUNDUP
NATIONAL WEATHER SERVICE BOSTON/NORTON MA
800 PM EDT THU APR 09 2020

NOTE:  "FAIR" INDICATES FEW OR NO CLOUDS BELOW 12,000 FEET WITH NO
SIGNIFICANT WEATHER AND/OR OBSTRUCTIONS TO VISIBILITY.

MAZALL-100100-
EASTERN MASSACHUSETTS

CITY           SKY/WX    TMP DP  RH WIND       PRES   REMARKS
BOSTON         LGT RAIN  44  37  76 W23G41    29.08R
6HR MIN TEMP:  44; 6HR MAX TEMP:  48; 6HR PCP:  0.45;

BEVERLY        LGT RAIN  44  41  89 W13       29.04R FOG
LAWRENCE       LGT RAIN  42  38  85 W30G45    29.08R FOG     WCI  31
BEDFORD        CLOUDY    44  40  85 W17G31    29.10R
BLUE HILL        N/A     41  37  86 W24G41    29.07R WCI  31
NORWOOD        CLOUDY    46  36  68 W23G33    29.11R
MARSHFIELD     CLOUDY    46  41  81 W15G30    29.08R
PLYMOUTH       LGT RAIN  45  37  73 W28G40    29.09R
TAUNTON        FAIR      44  34  67 W17G29    29.12R
NEW BEDFORD    MOCLDY    44  35  70 W29G40    29.13R
$$

MAZALL-100100-
CAPE COD AND THE ISLANDS

CITY           SKY/WX    TMP DP  RH WIND       PRES   REMARKS
FALMOUTH       MOCLDY    46  39  76 W23G32    29.11R
HYANNIS        CLOUDY    50  41  71 W14G25    29.07R
CHATHAM        FAIR      47  43  86 W12G20    29.08R
PROVINCETOWN   CLOUDY    47  43  86 W18G25    29.06R
NANTUCKET      FAIR      47  44  90 W16G25    29.13R
MARTHAS VNYRD  FAIR      47  39  74 W18G30    29.13R
$$

MAZALL-100100-
CENTRAL AND WESTERN MASSACHUSETTS

CITY           SKY/WX    TMP DP  RH WIND       PRES   REMARKS
WORCESTER      CLOUDY    40  28  62 W21G33    29.14R WCI  30
6HR MIN TEMP:  40; 6HR MAX TEMP:  46; 6HR PCP:  0.40;

FITCHBURG      FAIR      42  34  73 W20G29    29.13R
ORANGE         CLOUDY    43  30  60 W15G29    29.17R
SPRINGFIELD    PTCLDY    43  25  48 NW18G30   29.20R
WESTFIELD      FAIR      44  24  45 W22G37    29.20R
NORTH ADAMS    FAIR      41  25  53 W10G21    29.23R
PITTSFIELD     FAIR      39  24  55 NW17      29.21S WCI  30
$$

RIZALL-100100-
RHODE ISLAND

CITY           SKY/WX    TMP DP  RH WIND       PRES   REMARKS
PROVIDENCE     FAIR      44  32  62 W21G35    29.17R
6HR MIN TEMP:  44; 6HR MAX TEMP:  52; 6HR PCP:  0.34;

NEWPORT        FAIR      46  31  55 NW18G37   29.17R
BLOCK ISLAND   FAIR      44  31  60 NW17G31   29.23R
SMITHFIELD     FAIR      42  31  64 W20G32    29.15R
WESTERLY       FAIR      48  27  44 NW8G26    29.23R
$$

CTZALL-100100-
CONNECTICUT

CITY           SKY/WX    TMP DP  RH WIND       PRES   REMARKS
BRADLEY INTL   FAIR      46  24  42 W22G35    29.22R
6HR MIN TEMP:  45; 6HR MAX TEMP:  52; 6HR PCP:  0.16;

HARTFORD       FAIR      46  26  45 W13G23    29.25R
BRIDGEPORT     FAIR      48  27  44 W9G22     29.30R
DANBURY        FAIR      44  26  49 W10G23    29.31R
GROTON         FAIR      45  26  47 NW21G28   29.23R
NEW HAVEN      FAIR      49  28  44 W15G28    29.28R
CHESTER        FAIR      45  27  49 W9G20     29.25R
MERIDEN        FAIR      46  27  47 W10       29.27R
WILLIMANTIC    FAIR      44  27  51 W14G25    29.23R
OXFORD         FAIR      43  27  53 W15G23    29.27R
$$

MEZ002-015-021-024-NHZ003-005-008-011-012-014-VTZ005-008-100100-
NORTHERN NEW ENGLAND

CITY           SKY/WX    TMP DP  RH WIND       PRES   REMARKS
PORTLAND ME    LGT SNOW  34  31  88 NE8       29.05S FOG     WCI  27
6HR MIN TEMP:  34; 6HR MAX TEMP:  42; 6HR PCP:  1.07;

BANGOR ME      LGT SNOW  33  31  92 E14       29.19F VSB 3/4 WCI  23
CONCORD NH     FLURRIES  35  32  88 NW15G24   29.13R WCI  25
MANCHESTER NH  RAIN      41  37  86 NW15G25   29.10R FOG
NASHUA NH      LGT RAIN  43  37  81 NW24G38   29.12R
PORTSMOUTH NH  LGT RAIN  36  34  94 NW15      29.02  WCI  27
JAFFREY NH     LGT RAIN  40  34  79 W12G18    29.14R
KEENE NH       CLOUDY    41  33  73 N9G17     29.17R
BURLINGTON VT  CLOUDY    41  31  67 W5        29.19R
MT. WASHINGTON NOT AVBL
$$

NYZ052-076-100100-
EASTERN NEW YORK

CITY           SKY/WX    TMP DP  RH WIND       PRES   REMARKS
ALBANY         FAIR      45  24  43 W23G33    29.24S
6HR MIN TEMP:  45; 6HR MAX TEMP:  50; 6HR PCP:  0.06;

NEW YORK CITY  FAIR      50  25  37 NW22G36   29.34R
6HR MIN TEMP:  50; 6HR MAX TEMP:  58; 6HR PCP:  0.16;

$$

ANZALL-100100-
MARINE OBSERVATIONS

STATION/POSITION TIME  TEMP    WIND        PRES    VSBY  WAVE
                       AIR SEA DIR/SP/G                  HT/PER
                 (UTC) (F)     (DEG/KT/KT) (MB)    (MI)  (FT/S)
BOSTON BUOY      2250   46 44  280/ 19/ 23  981.8          5/ 6
BUZZARDS BAY     2300          290/ 27/ 30  986.4R
NANTUCKET SOUND  2340                        N/A           3/ 4
MASS BAY-STELLWA NOT AVBL
ISLE OF SHOALS   2300   41     330/ 21/ 23  981.2F
S OF BLOCK IS    2330      44                N/A           7/ 7
$$

......................KEY.........................
  SKY/WX - SKY CONDITION/PRESENT WEATHER
  TMP    - TEMPERATURE IN FAHRENHEIT
  DWPT   - DEWPOINT IN FAHRENHEIT
  RH     - RELATIVE HUMIDITY IN PERCENT
  WIND   - DIRECTION AND SPEED IN MPH
  PRES   - MEAN SEA LEVEL PRESSURE IN INCHES OF HG
  WCI    - WIND CHILL INDEX
  VSB    - VISIBILITY IN MILES
  HX     - HEAT INDEX
  TC     - TEMPERATURE IN CELSIUS
  VRB    - VARIABLE WIND DIRECTION
  N/A    - NOT AVAILABLE




USA.gov is the U.S. government's official web portal to all federal, state and local government web resources and services.